Location: Krakow
(50.0830°N, 19.9170°E)
Time: 04:12:30
(UTC+02:00)

Tiros 1 - Pass Details

Date: 08 February 2023
Orbit: 627 x 662 km, 48.4° (Epoch: 25 March)

Event Time Altitude Azimuth Distance (km) Brightness Sun altitude
Rises 00:18:11 0° 255° (WSW) 2,907 - -54.7°
Reaches altitude 10° 00:20:30 10° 253° (WSW) 2,002 - -54.7°
Maximum altitude 00:25:04 68° 171° (S) 683 - -54.5°
Drops below altitude 10° 00:29:41 10° 89° (E) 2,019 - -54.3°
Sets 00:32:02 0° 87° (E) 2,934 - -54.2°
